[[{"header":{"parameterUnit":"m.s-1","parameterCategory":2,"la1":30.2991,"la2":30.254,"lo1":-89.0895,"lo2":-89.0444,"dy":0.0017,"dx":0.0017,"nx":28,"ny":28,"refTime":"2024-08-06T21:00:00:Z","depth":"0","parameterNumber":2,"parameterNumberName":"U-component_of_CURRENTS"},"data":[0,0,0,0,0,0,0,0,0,0,0,0,0,0,0,0,0,0,0,0,0,0,0,0,0,0,0,0,0,0,0,0,0,0,0,0,0,0,0,0,0,0,0,0,0,0,0,0,0,0,0,0,0,0,0,0,0,0,0.3073,0.3074,0,0.3127,0.3128,0.3129,0.3129,0.3128,0.3128,0.3127,0.3025,0.3023,0.3021,0,0,0,0,0,0,0,0,0,0,0,0,0,0.2975,0.2977,0.3073,0.3074,0.3075,0.3127,0.3128,0.3129,0.3129,0.3128,0.3128,0.3127,0.3026,0.3023,0.3021,0,0,0,0,0,0,0,0,0,0,0,0,0,0.3022,0.2977,0.3073,0.3081,0.3082,0.3127,0.3128,0.3129,0.3129,0.3128,0.3127,0.3126,0.3027,0.3024,0.3021,0.3023,0,0,0.3011,0.301,0,0,0,0,0,0,0,0,0.302,0.3026,0.3079,0.308,0.3082,0.312,0.3056,0.3086,0.313,0.3112,0.3127,0.3126,0.3043,0.3039,0.3054,0.3019,0.3014,0.3011,0.3009,0.3008,0.3007,0,0,0,0,0,0,0,0.3016,0.3024,0.3095,0.308,0.3082,0.3083,0.3089,0.3063,0.308,0.3113,0.3113,0.3119,0.3043,0.3057,0.3051,0.3013,0.3011,0.3008,0.3006,0.3005,0.3035,0.3038,0,0,0,0,0,0,0.3011,0.3021,0.3093,0.3097,0.3047,0.3086,0.3092,0.3109,0.3084,0.308,0.312,0.3119,0.3063,0.3055,0.3047,0.3099,0.3008,0.3005,0.3003,0.3033,0.3036,0.3039,0,0,0,0,0,0,0.3009,0.3017,0.3091,0.3059,0.3068,0.3089,0.3108,0.3111,0.3129,0.3091,0.3084,0.3135,0.3062,0.3051,0.306,0.3093,0.3004,0.3001,0.303,0.3034,0.3037,0.317,0,0,0,0,0,0,0.3006,0.3016,0.3029,0.3059,0.307,0.3123,0.3109,0.3113,0.3134,0.3133,0.3101,0.3091,0.306,0.3065,0.3057,0.3087,0.2998,0.3026,0.3031,0.3036,0.3162,0.3178,0.3191,0,0,0,0,0,0.3002,0.302,0.303,0.3038,0.3086,0.3124,0.313,0.314,0.3136,0.3151,0.3151,0.3092,0.309,0.3065,0.3055,0.3084,0.3024,0.303,0.3036,0.3155,0.3175,0.3191,0,0,0,0,0,0,0.2981,0.3023,0.3034,0.3063,0.3094,0.3124,0.3137,0.3149,0.3164,0.316,0.3125,0.3116,0.3138,0.3098,0.3071,0.3111,0.3047,0.3051,0.3142,0.3159,0.3173,0.3143,0.2996,0,0,0,0,0,0.2985,0.3006,0.3049,0.307,0.3089,0.3118,0.3134,0.3146,0.3163,0.3169,0.3153,0.3143,0.3156,0.3146,0.3139,0.3153,0.3146,0.3168,0.3182,0.3195,0.3166,0.3223,0.324,0.3058,0.3058,0.3058,0,0,0.2976,0.3005,0.3014,0.3066,0.309,0.3119,0.3125,0.3156,0.3182,0.3152,0.3176,0.3188,0.3174,0.3208,0.3211,0.3174,0.3255,0.3202,0.3213,0.3176,0.3231,0.3248,0.3264,0.3062,0.3062,0.3061,0,0,0.2966,0.3005,0.3018,0.3053,0.3098,0.3123,0.3135,0.3177,0.32,0.3235,0.3238,0.3276,0.3265,0.3285,0.3289,0.3374,0.3335,0.3374,0.3412,0.3471,0.3485,0.3498,0.3562,0.3579,0.3375,0.3376,0.3376,0,0.2949,0.2982,0.3027,0.3056,0.3078,0.3125,0.3145,0.3188,0.3227,0.3249,0.3247,0.3306,0.3301,0.3361,0.3405,0.3403,0.3431,0.335,0.3489,0.3501,0.3512,0.3574,0.3591,0.3383,0.3382,0.3381,0.338,0,0.2954,0.2983,0.2998,0.3048,0.3084,0.3111,0.3175,0.3214,0.3247,0.3283,0.3354,0.339,0.3412,0.3448,0.345,0.3536,0.3535,0.351,0.3443,0.3538,0.3598,0.3614,0.3393,0.339,0.3388,0.3386,0,0,0.2888,0.298,0.298,0.2999,0.3082,0.3101,0.317,0.3233,0.3272,0.3338,0.3389,0.3469,0.3494,0.3501,0.3536,0.3598,0.3735,0.3591,0.359,0.365,0.3882,0.3877,0.3893,0.3745,0.3748,0.375,0.3912,0,0.2867,0.2905,0.2965,0.2994,0.3017,0.3095,0.3149,0.3218,0.3289,0.3355,0.3435,0.3488,0.3515,0.3546,0.3622,0.3698,0.3774,0.3693,0.378,0.3782,0.3763,0.3909,0.3831,0.3967,0.3927,0.3929,0.3931,0,0.284,0.2871,0.2897,0.2966,0.2983,0.3009,0.3096,0.3156,0.328,0.3338,0.3427,0.3487,0.3603,0.3603,0.3783,0.3736,0.381,0.3873,0.388,0.3821,0.3804,0.3855,0.3996,0.3837,0.3954,0.3952,0.3951,0,0.2751,0.2813,0.2827,0.2852,0.2946,0.2967,0.3015,0.3134,0.3188,0.3323,0.3365,0.3517,0.3572,0.3707,0.3846,0.3824,0.4039,0.4015,0.4084,0.4084,0.4,0.3989,0.398,0.413,0.413,0.413,0.4129,0,0.2707,0.2711,0.2778,0.2787,0.2796,0.2889,0.2927,0.3011,0.3128,0.3194,0.3333,0.341,0.3598,0.3742,0.3871,0.4041,0.4061,0.4112,0.4133,0.4051,0.4043,0.388,0.3787,0.4136,0.4134,0.4133,0.4132,0,0.2624,0.2672,0.2677,0.2743,0.2757,0.2759,0.2844,0.2888,0.3005,0.3098,0.3134,0.3336,0.3534,0.3729,0.3957,0.4049,0.4116,0.4264,0.4163,0.4169,0.4064,0.3982,0.3885,0.3783,0.4375,0.4376,0.4377,0,0.2592,0.2588,0.2615,0.2609,0.2635,0.2656,0.2687,0.2807,0.2871,0.3057,0.3099,0.3299,0.3459,0.3802,0.4022,0.427,0.412,0.4311,0.4242,0.4065,0.3991,0.3829,0.3736,0.4212,0.4211,0.4211,0.421,0,0.2522,0.2523,0.253,0.2516,0.252,0.2544,0.2598,0.2622,0.2787,0.288,0.304,0.3177,0.3507,0.3736,0.4046,0.4199,0.4092,0.4306,0.4149,0.3885,0.3681,0.3588,0.4097,0.4205,0.4206,0.4206,0.4207,0.4207,0.2449,0.2429,0.243,0.2413,0.2421,0.2439,0.243,0.2528,0.2614,0.2755,0.2933,0.3105,0.3434,0.3867,0.4009,0.4123,0.4049,0.406,0.3992,0.3857,0.3686,0.4188,0.4292,0.4293,0.4294,0.4294,0.4295,0,0.2346,0.2347,0.2334,0.2311,0.2286,0.2333,0.238,0.238,0.2453,0.2635,0.2779,0.3068,0.3329,0.3603,0.3873,0.3822,0.3713,0.3711,0.3442,0.3381,0.3871,0.3788,0.3753,0.3754,0.3754,0.3754,0.3754,0.3754,0.2283,0.2242,0.2248,0.2183,0.2174,0.2131,0.2138,0.2179,0.2277,0.2421,0.2566,0.2738,0.3075,0.3367,0.3464,0.3457,0.3188,0.3096,0.3013,0.3327,0.3352,0.3375,0.3274,0.3133,0.3132,0.2446,0.244,0.2436]},{"header":{"parameterUnit":"m.s-1","parameterCategory":2,"la1":30.2991,"la2":30.254,"lo1":-89.0895,"lo2":-89.0444,"dy":0.0017,"dx":0.0017,"nx":28,"ny":28,"refTime":"2024-08-06T21:00:00:Z","depth":"0","parameterNumber":3,"parameterNumberName":"V-component_of_CURRENTS"},"data":[0,0,0,0,0,0,0,0,0,0,0,0,0,0,0,0,0,0,0,0,0,0,0,0,0,0,0,0,0,0,0,0,0,0,0,0,0,0,0,0,0,0,0,0,0,0,0,0,0,0,0,0,0,0,0,0,0,0,-0.047,-0.0471,0,-0.0557,-0.0558,-0.0559,-0.0623,-0.0623,-0.0624,-0.0624,-0.0649,-0.0649,-0.065,0,0,0,0,0,0,0,0,0,0,0,0,0,-0.0371,-0.0372,-0.047,-0.0471,-0.0472,-0.0557,-0.0558,-0.0559,-0.0623,-0.0623,-0.0624,-0.0625,-0.0649,-0.0649,-0.065,0,0,0,0,0,0,0,0,0,0,0,0,0,-0.0431,-0.0373,-0.047,-0.0514,-0.0519,-0.0556,-0.0558,-0.0559,-0.0622,-0.0623,-0.0624,-0.0625,-0.0649,-0.0649,-0.065,-0.0635,0,0,-0.065,-0.065,0,0,0,0,0,0,0,0,-0.0428,-0.0435,-0.0507,-0.0511,-0.0517,-0.058,-0.0532,-0.0581,-0.0622,-0.0583,-0.0624,-0.0625,-0.062,-0.0622,-0.0638,-0.0636,-0.0637,-0.065,-0.0651,-0.0651,-0.0651,0,0,0,0,0,0,0,-0.0423,-0.0432,-0.0505,-0.0508,-0.0514,-0.0533,-0.0543,-0.0542,-0.0595,-0.0587,-0.0592,-0.0601,-0.0622,-0.0638,-0.0639,-0.0637,-0.065,-0.0651,-0.0651,-0.0651,-0.0642,-0.0642,0,0,0,0,0,0,-0.0411,-0.0428,-0.0502,-0.0507,-0.0473,-0.0534,-0.0545,-0.0559,-0.0596,-0.0603,-0.06,-0.0603,-0.0637,-0.0638,-0.064,-0.0618,-0.0651,-0.0651,-0.0651,-0.0643,-0.0642,-0.0642,0,0,0,0,0,0,-0.0409,-0.0417,-0.0499,-0.0469,-0.0481,-0.0535,-0.055,-0.056,-0.0575,-0.0607,-0.0613,-0.0605,-0.0637,-0.0639,-0.0643,-0.0619,-0.0651,-0.0651,-0.0643,-0.0643,-0.0642,-0.0577,0,0,0,0,0,0,-0.0406,-0.0416,-0.0414,-0.0468,-0.0482,-0.0507,-0.055,-0.0561,-0.0579,-0.0585,-0.0612,-0.0616,-0.0638,-0.0642,-0.0643,-0.062,-0.0651,-0.0644,-0.0643,-0.0642,-0.0579,-0.0574,-0.0569,0,0,0,0,0,-0.0402,-0.0393,-0.0413,-0.0422,-0.048,-0.0506,-0.0514,-0.0556,-0.0578,-0.0574,-0.0605,-0.0615,-0.0639,-0.0642,-0.0643,-0.0619,-0.0644,-0.0643,-0.0642,-0.0582,-0.0575,-0.057,0,0,0,0,0,0,-0.0352,-0.04,-0.0424,-0.0431,-0.0461,-0.0517,-0.0515,-0.0547,-0.057,-0.0575,-0.0609,-0.0614,-0.0612,-0.0625,-0.0628,-0.0618,-0.0643,-0.0642,-0.0597,-0.0591,-0.0586,-0.0555,-0.0652,0,0,0,0,0,-0.0339,-0.0343,-0.0394,-0.0399,-0.0409,-0.0461,-0.0475,-0.0506,-0.0538,-0.055,-0.0574,-0.0596,-0.0609,-0.0607,-0.0624,-0.0608,-0.0621,-0.0595,-0.059,-0.0586,-0.0563,-0.058,-0.0573,-0.0639,-0.0639,-0.0639,0,0,-0.0323,-0.0348,-0.0352,-0.0387,-0.0414,-0.0415,-0.0471,-0.0488,-0.0488,-0.0545,-0.0545,-0.058,-0.0604,-0.0599,-0.0597,-0.0604,-0.0576,-0.0585,-0.0581,-0.056,-0.0578,-0.0571,-0.0566,-0.0639,-0.0639,-0.0639,0,0,-0.0285,-0.0312,-0.0301,-0.0315,-0.0348,-0.0377,-0.0377,-0.0428,-0.0447,-0.0457,-0.0502,-0.0521,-0.0536,-0.0553,-0.0561,-0.0533,-0.0556,-0.0541,-0.0478,-0.0495,-0.0489,-0.0485,-0.0495,-0.0492,-0.053,-0.053,-0.053,0,-0.0263,-0.026,-0.0299,-0.0288,-0.029,-0.0352,-0.0336,-0.036,-0.0407,-0.0412,-0.0444,-0.0485,-0.051,-0.0501,-0.0498,-0.0518,-0.0532,-0.0498,-0.0487,-0.0482,-0.0479,-0.0491,-0.0488,-0.0527,-0.0527,-0.0527,-0.0528,0,-0.0219,-0.0212,-0.0202,-0.0207,-0.0212,-0.0209,-0.0245,-0.0256,-0.029,-0.0321,-0.0334,-0.0386,-0.0406,-0.0422,-0.0448,-0.0431,-0.0452,-0.0485,-0.0497,-0.0468,-0.0483,-0.0481,-0.0522,-0.0523,-0.0524,-0.0525,0,0,-0.0185,-0.0174,-0.0169,-0.0154,-0.0169,-0.0171,-0.0158,-0.0169,-0.0162,-0.0211,-0.0202,-0.0242,-0.0285,-0.0297,-0.0343,-0.0355,-0.0349,-0.0397,-0.04,-0.0398,-0.0379,-0.0393,-0.0393,-0.0383,-0.0382,-0.0382,-0.0401,0,-0.014,-0.0094,-0.0103,-0.0058,-0.0039,-0.007,-0.0055,-0.0071,-0.0096,-0.0103,-0.0157,-0.0173,-0.0232,-0.025,-0.0267,-0.0332,-0.034,-0.034,-0.0415,-0.0417,-0.0426,-0.039,-0.0357,-0.0371,-0.0399,-0.0399,-0.0399,0,-0.0099,-0.0069,-0.0015,0.0014,0.002,0.0039,0.0053,0.0057,0.0037,0.0015,-0.0009,-0.0062,-0.0086,-0.015,-0.0218,-0.0216,-0.0279,-0.0332,-0.0335,-0.0364,-0.0427,-0.0406,-0.0367,-0.0533,-0.0396,-0.0396,-0.0396,0,-0.0063,-0.0013,0.0036,0.0048,0.0073,0.0095,0.0103,0.0096,0.0105,0.009,0.0088,0.0041,0.0015,-0.0063,-0.0172,-0.0195,-0.025,-0.0303,-0.037,-0.0373,-0.0364,-0.0367,-0.0481,-0.0338,-0.0338,-0.0338,-0.0338,0,-0.0022,0.0015,0.0061,0.0088,0.0148,0.0146,0.0192,0.0187,0.0191,0.0216,0.0151,0.0158,0.0035,-0.0021,-0.0127,-0.023,-0.0216,-0.0338,-0.0371,-0.0342,-0.0342,-0.0503,-0.0587,-0.0338,-0.0338,-0.0338,-0.0338,0,-0.0007,0.0024,0.0085,0.0141,0.0165,0.0203,0.0247,0.0273,0.0269,0.0303,0.0301,0.0252,0.0188,0.0064,-0.0057,-0.0168,-0.0346,-0.0316,-0.0269,-0.0296,-0.0522,-0.0602,-0.0705,-0.0749,-0.039,-0.039,-0.0391,0,0.0003,0.0038,0.0125,0.0172,0.0201,0.0259,0.0296,0.031,0.0343,0.0364,0.0386,0.0342,0.0335,0.0156,-0.0032,-0.0197,-0.0342,-0.0309,-0.0349,-0.0511,-0.0624,-0.0678,-0.0711,-0.0315,-0.0315,-0.0315,-0.0314,0,0.003,0.0059,0.0112,0.0209,0.0271,0.0338,0.0398,0.0441,0.0464,0.0508,0.0556,0.0559,0.0397,0.0259,0.0021,-0.0114,-0.0402,-0.031,-0.0488,-0.0571,-0.0623,-0.0689,-0.0333,-0.0312,-0.0312,-0.0312,-0.0312,-0.0312,0.0055,0.0096,0.0173,0.0261,0.0331,0.0424,0.0495,0.0568,0.0656,0.0772,0.0732,0.0815,0.055,0.0246,0.0006,-0.0397,-0.0395,-0.0526,-0.0606,-0.0644,-0.0693,-0.0327,-0.0344,-0.0344,-0.0345,-0.0345,-0.0345,0,0.0117,0.0158,0.0226,0.0342,0.0422,0.0453,0.057,0.0668,0.0812,0.0939,0.1024,0.1,0.0657,0.0275,-0.0278,-0.0623,-0.0731,-0.0816,-0.0894,-0.0912,-0.0594,-0.06,-0.066,-0.066,-0.066,-0.066,-0.066,-0.066,0.0165,0.0238,0.0269,0.0415,0.0487,0.0621,0.0704,0.0863,0.0997,0.1229,0.1345,0.1385,0.1089,0.001,-0.0763,-0.0948,-0.1161,-0.1214,-0.1334,-0.115,-0.113,-0.1111,-0.1139,-0.131,-0.1311,-0.1591,-0.1594,-0.1596]}],[{"header":{"parameterUnit":"m.s-1","parameterCategory":2,"la1":30.2991,"la2":30.254,"lo1":-89.0895,"lo2":-89.0444,"dy":0.0017,"dx":0.0017,"nx":28,"ny":28,"refTime":"2024-08-06T21:00:00:Z","depth":"2","parameterNumber":2,"parameterNumberName":"U-component_of_CURRENTS"},"data":[0,0,0,0,0,0,0,0,0,0,0,0,0,0,0,0,0,0,0,0,0,0,0,0,0,0,0,0,0,0,0,0,0,0,0,0,0,0,0,0,0,0,0,0,0,0,0,0,0,0,0,0,0,0,0,0,0,0,0.164,0.1642,0,0.1733,0.1734,0.1734,0.1794,0.1795,0.1796,0.1797,0.1953,0.1956,0.1959,0,0,0,0,0,0,0,0,0,0,0,0,0,0.1503,0.1505,0.164,0.1642,0.1644,0.1733,0.1734,0.1734,0.1794,0.1795,0.1797,0.1798,0.1952,0.1956,0.196,0,0,0,0,0,0,0,0,0,0,0,0,0,0.1569,0.1505,0.164,0.169,0.1696,0.1733,0.1734,0.1734,0.1794,0.1795,0.1797,0.1798,0.1951,0.1955,0.196,0.1958,0,0,0.1975,0.1977,0,0,0,0,0,0,0,0,0.1565,0.1573,0.1681,0.1687,0.1693,0.176,0.1743,0.1815,0.1793,0.1749,0.1797,0.1799,0.1898,0.1907,0.191,0.1965,0.1972,0.1975,0.1978,0.198,0.1981,0,0,0,0,0,0,0,0.156,0.1569,0.1669,0.1683,0.169,0.1705,0.1715,0.1756,0.1809,0.1753,0.1759,0.1781,0.1901,0.1905,0.1914,0.1974,0.1975,0.1979,0.1982,0.1984,0.2158,0.2159,0,0,0,0,0,0,0.1563,0.1565,0.1666,0.1673,0.164,0.1706,0.1717,0.1731,0.1807,0.1822,0.1779,0.1783,0.1896,0.1908,0.192,0.2039,0.198,0.1984,0.1987,0.2156,0.2158,0.216,0,0,0,0,0,0,0.1559,0.1571,0.1663,0.1627,0.1641,0.1708,0.1722,0.1732,0.1767,0.1828,0.1843,0.1809,0.1898,0.1913,0.1995,0.2042,0.1986,0.1991,0.2154,0.2157,0.2159,0.2203,0,0,0,0,0,0,0.1555,0.1568,0.1584,0.1627,0.1644,0.1697,0.1722,0.1733,0.178,0.1786,0.1857,0.1872,0.19,0.1988,0.1999,0.2047,0.1994,0.2152,0.2155,0.2158,0.22,0.2207,0.2214,0,0,0,0,0,0.1549,0.1556,0.1583,0.1597,0.1661,0.1698,0.1707,0.1754,0.178,0.1791,0.1857,0.1871,0.2017,0.1993,0.2006,0.2057,0.215,0.2154,0.2158,0.2197,0.2206,0.2213,0,0,0,0,0,0,0.1493,0.1566,0.1596,0.1622,0.1668,0.1712,0.1734,0.1765,0.1821,0.1845,0.1893,0.1912,0.1997,0.2018,0.199,0.2116,0.2086,0.2093,0.2111,0.212,0.2127,0.2091,0.1998,0,0,0,0,0,0.1492,0.1524,0.1587,0.1608,0.1636,0.1689,0.1715,0.1753,0.1807,0.1833,0.1886,0.1952,0.2016,0.2062,0.2107,0.2178,0.2189,0.2219,0.2226,0.2232,0.2213,0.2273,0.2284,0.2173,0.2173,0.2173,0,0,0.1476,0.1521,0.1539,0.1601,0.1641,0.1678,0.1707,0.1757,0.1795,0.1843,0.1914,0.1973,0.2037,0.2118,0.2159,0.2151,0.2275,0.2237,0.2242,0.2219,0.2278,0.2289,0.2298,0.2176,0.2175,0.2175,0,0,0.1457,0.1503,0.1529,0.157,0.1647,0.1682,0.1703,0.177,0.181,0.1882,0.1937,0.202,0.2107,0.2167,0.2208,0.2278,0.2301,0.2309,0.2332,0.2392,0.2401,0.2409,0.2455,0.2466,0.2324,0.2324,0.2325,0,0.1446,0.1485,0.1538,0.1575,0.1616,0.1686,0.1721,0.1764,0.185,0.189,0.1911,0.2064,0.2122,0.2232,0.2267,0.2293,0.2328,0.2297,0.24,0.2408,0.2415,0.246,0.2472,0.2327,0.2327,0.2326,0.2326,0,0.145,0.149,0.1507,0.1584,0.1622,0.1668,0.1741,0.1789,0.1851,0.1904,0.2018,0.2104,0.2195,0.2243,0.2282,0.2383,0.2392,0.2393,0.2374,0.2429,0.2473,0.2485,0.2331,0.233,0.2329,0.2328,0,0,0.1437,0.1499,0.1517,0.1548,0.1641,0.1673,0.1735,0.1814,0.1876,0.1959,0.2036,0.2162,0.2219,0.2268,0.2345,0.241,0.251,0.2434,0.2436,0.247,0.2647,0.2615,0.2625,0.2543,0.2545,0.2547,0.2664,0,0.1446,0.1488,0.1528,0.1584,0.162,0.1691,0.1746,0.1826,0.1907,0.1995,0.2093,0.2198,0.223,0.2308,0.2374,0.2481,0.2541,0.2477,0.2595,0.2597,0.2555,0.2637,0.2355,0.2432,0.2675,0.2677,0.2678,0,0.1469,0.1495,0.1532,0.16,0.1627,0.1673,0.1782,0.1844,0.1969,0.2033,0.2137,0.2212,0.2341,0.2351,0.2524,0.2491,0.2563,0.2626,0.2632,0.2585,0.2586,0.2414,0.2444,0.2698,0.2697,0.2695,0.2694,0,0.1457,0.1514,0.1538,0.1564,0.1643,0.1686,0.1751,0.1869,0.1936,0.2075,0.214,0.2273,0.2378,0.2467,0.2607,0.2578,0.2783,0.2753,0.278,0.2778,0.2547,0.2521,0.2845,0.2845,0.2845,0.2845,0.2844,0,0.1472,0.1502,0.1537,0.1564,0.1632,0.1689,0.179,0.1873,0.1985,0.208,0.2177,0.2278,0.2417,0.2548,0.2628,0.2759,0.2803,0.2788,0.2811,0.2558,0.2534,0.2758,0.2746,0.2849,0.2848,0.2847,0.2847,0,0.1468,0.1489,0.153,0.1598,0.1635,0.1696,0.1816,0.1872,0.1991,0.2113,0.2156,0.2315,0.2502,0.2631,0.2814,0.2806,0.2917,0.2949,0.2642,0.2626,0.2855,0.2844,0.2955,0.2955,0.2955,0.2955,0.2955,0,0.1455,0.1471,0.1553,0.159,0.1633,0.172,0.1778,0.1888,0.1941,0.214,0.2185,0.2397,0.2532,0.2772,0.2775,0.2877,0.3006,0.2711,0.2584,0.2857,0.2869,0.2859,0.2848,0.2302,0.2297,0.2292,0.2289,0,0.1427,0.1466,0.1489,0.1586,0.1651,0.1705,0.1793,0.1834,0.1962,0.2062,0.2227,0.2349,0.2529,0.2511,0.2636,0.2656,0.2659,0.2625,0.3009,0.2325,0.2253,0.2261,0.227,0.225,0.2254,0.2256,0.2259,0.226,0.1387,0.1413,0.1462,0.155,0.1619,0.1671,0.17,0.1778,0.1869,0.1939,0.2122,0.2208,0.2214,0.224,0.2268,0.2305,0.2453,0.2375,0.2383,0.2398,0.2308,0.2241,0.2218,0.2222,0.2225,0.2227,0.223,0,0.13,0.1355,0.1423,0.1497,0.1517,0.1612,0.1673,0.1649,0.1725,0.1793,0.1881,0.1746,0.175,0.188,0.1811,0.1835,0.1759,0.1861,0.1722,0.1761,0.1795,0.1671,0.1414,0.1413,0.1411,0.141,0,0,0.1249,0.1269,0.1317,0.1348,0.1416,0.1432,0.1452,0.146,0.1488,0.1474,0.148,0.1482,0.1682,0.1424,0.144,0.1446,0.1587,0.1406,0.2042,0.1906,0.1938,0.2065,0.1915,0,0,0,0,0]},{"header":{"parameterUnit":"m.s-1","parameterCategory":2,"la1":30.2991,"la2":30.254,"lo1":-89.0895,"lo2":-89.0444,"dy":0.0017,"dx":0.0017,"nx":28,"ny":28,"refTime":"2024-08-06T21:00:00:Z","depth":"2","parameterNumber":3,"parameterNumberName":"V-component_of_CURRENTS"},"data":[0,0,0,0,0,0,0,0,0,0,0,0,0,0,0,0,0,0,0,0,0,0,0,0,0,0,0,0,0,0,0,0,0,0,0,0,0,0,0,0,0,0,0,0,0,0,0,0,0,0,0,0,0,0,0,0,0,0,-0.0202,-0.0204,0,-0.0357,-0.0358,-0.036,-0.0443,-0.0444,-0.0444,-0.0445,-0.0532,-0.0534,-0.0535,0,0,0,0,0,0,0,0,0,0,0,0,0,0.0049,0.0045,-0.0201,-0.0204,-0.0206,-0.0357,-0.0358,-0.036,-0.0443,-0.0444,-0.0444,-0.0445,-0.0531,-0.0533,-0.0535,0,0,0,0,0,0,0,0,0,0,0,0,0,-0.0074,0.0044,-0.0201,-0.0269,-0.0277,-0.0356,-0.0358,-0.036,-0.0443,-0.0444,-0.0445,-0.0445,-0.0531,-0.0533,-0.0536,-0.0535,0,0,-0.0544,-0.0545,0,0,0,0,0,0,0,0,-0.0067,-0.0083,-0.0257,-0.0264,-0.0273,-0.0385,-0.0302,-0.0417,-0.0443,-0.0375,-0.0445,-0.0446,-0.0479,-0.0486,-0.0508,-0.0539,-0.0543,-0.0544,-0.0546,-0.0547,-0.0548,0,0,0,0,0,0,0,-0.0058,-0.0076,-0.0258,-0.0259,-0.0269,-0.0283,-0.0301,-0.0324,-0.0415,-0.0381,-0.0389,-0.0413,-0.0482,-0.0505,-0.051,-0.0544,-0.0544,-0.0546,-0.0548,-0.0549,-0.0619,-0.0619,0,0,0,0,0,0,-0.0049,-0.0069,-0.0254,-0.0264,-0.0175,-0.0287,-0.0307,-0.0345,-0.0417,-0.0431,-0.0412,-0.0416,-0.05,-0.0507,-0.0513,-0.0527,-0.0547,-0.0549,-0.0551,-0.0618,-0.0619,-0.0619,0,0,0,0,0,0,-0.0043,-0.0065,-0.0247,-0.0172,-0.0197,-0.0291,-0.0332,-0.0348,-0.0381,-0.0442,-0.0453,-0.0431,-0.0501,-0.051,-0.0542,-0.0531,-0.0551,-0.0553,-0.0618,-0.0618,-0.0619,-0.0548,0,0,0,0,0,0,-0.0036,-0.0062,-0.007,-0.0172,-0.0201,-0.0282,-0.0333,-0.035,-0.0396,-0.0403,-0.0462,-0.0471,-0.0502,-0.0538,-0.0545,-0.0535,-0.0555,-0.0618,-0.0618,-0.0619,-0.055,-0.0545,-0.0542,0,0,0,0,0,-0.0026,-0.0027,-0.007,-0.0092,-0.0215,-0.0282,-0.0296,-0.0363,-0.0396,-0.0398,-0.045,-0.0469,-0.0546,-0.054,-0.0548,-0.0539,-0.0617,-0.0618,-0.0619,-0.0551,-0.0546,-0.0542,0,0,0,0,0,0,0.0097,-0.0039,-0.0088,-0.0126,-0.0198,-0.0297,-0.0306,-0.0361,-0.0406,-0.0413,-0.0471,-0.0483,-0.0509,-0.0536,-0.0528,-0.0563,-0.0585,-0.0587,-0.0531,-0.0527,-0.0523,-0.0483,-0.0557,0,0,0,0,0,0.0113,0.0067,-0.0053,-0.0077,-0.0116,-0.0213,-0.0246,-0.0299,-0.0362,-0.0385,-0.0434,-0.0481,-0.0516,-0.0531,-0.0566,-0.0578,-0.0597,-0.058,-0.0576,-0.0572,-0.0547,-0.0584,-0.058,-0.0621,-0.0621,-0.0621,0,0,0.0159,0.0077,0.0055,-0.0054,-0.0117,-0.0153,-0.0234,-0.0283,-0.0303,-0.0383,-0.0413,-0.0469,-0.0519,-0.054,-0.0553,-0.056,-0.0572,-0.0573,-0.0569,-0.0545,-0.0584,-0.058,-0.0576,-0.0621,-0.0621,-0.0621,0,0,0.0227,0.0148,0.0127,0.0067,-0.0035,-0.0097,-0.0112,-0.0221,-0.026,-0.0307,-0.0369,-0.0414,-0.0474,-0.0504,-0.0527,-0.052,-0.0554,-0.0542,-0.0481,-0.0518,-0.0514,-0.0511,-0.0525,-0.0524,-0.0534,-0.0534,-0.0534,0,0.0281,0.0231,0.0122,0.0088,0.0053,-0.0068,-0.008,-0.0134,-0.0234,-0.0252,-0.0303,-0.0401,-0.045,-0.0466,-0.0474,-0.0507,-0.0531,-0.0492,-0.051,-0.0508,-0.0506,-0.0521,-0.052,-0.0531,-0.0531,-0.0532,-0.0532,0,0.0325,0.0286,0.0276,0.0183,0.0142,0.0113,0.0011,-0.0024,-0.0096,-0.0156,-0.0209,-0.0298,-0.0349,-0.0384,-0.0429,-0.0439,-0.0462,-0.0504,-0.0514,-0.0497,-0.0515,-0.0515,-0.0526,-0.0527,-0.0528,-0.0529,0,0,0.0403,0.0321,0.0311,0.029,0.0185,0.0152,0.0132,0.0073,0.007,-0.0041,-0.005,-0.0149,-0.0214,-0.0244,-0.0318,-0.0359,-0.0379,-0.0421,-0.0424,-0.0418,-0.0447,-0.0423,-0.0422,-0.0432,-0.0432,-0.0432,-0.0462,0,0.0456,0.0446,0.0381,0.0376,0.0355,0.0264,0.0261,0.0201,0.0137,0.0103,-0.0006,-0.005,-0.0156,-0.0187,-0.0244,-0.0347,-0.0379,-0.0366,-0.0477,-0.0479,-0.0448,-0.0421,-0.043,-0.0454,-0.0463,-0.0463,-0.0463,0,0.0485,0.0476,0.0493,0.046,0.0443,0.0425,0.0397,0.0382,0.0318,0.0273,0.0204,0.0109,0.0031,-0.0069,-0.0215,-0.0206,-0.0309,-0.0395,-0.0399,-0.0395,-0.0457,-0.0476,-0.0455,-0.0465,-0.0465,-0.0465,-0.0465,0,0.0568,0.0537,0.0564,0.0546,0.0503,0.0495,0.0473,0.0428,0.0428,0.0378,0.0366,0.0252,0.0189,0.0044,-0.0146,-0.0184,-0.0299,-0.0373,-0.044,-0.044,-0.0473,-0.0475,-0.0455,-0.0455,-0.0455,-0.0455,-0.0455,0,0.0622,0.0632,0.0597,0.0604,0.0622,0.0572,0.0598,0.0564,0.0551,0.0564,0.0452,0.0439,0.0208,0.0098,-0.008,-0.0243,-0.0247,-0.0405,-0.044,-0.0449,-0.0448,-0.0484,-0.0487,-0.0456,-0.0456,-0.0456,-0.0456,0,0.0687,0.0674,0.0683,0.0662,0.0649,0.0656,0.0646,0.0681,0.0664,0.068,0.0665,0.0572,0.044,0.0228,0.0011,-0.0142,-0.0308,-0.0364,-0.0341,-0.0372,-0.0442,-0.0441,-0.044,-0.0439,-0.0439,-0.0438,-0.0438,0,0.0725,0.0743,0.0722,0.0718,0.0692,0.0704,0.0724,0.072,0.076,0.076,0.0777,0.0677,0.0624,0.0352,0.0049,-0.0211,-0.0256,-0.0357,-0.043,-0.0402,-0.0438,-0.0438,-0.0438,-0.0455,-0.0455,-0.0455,-0.0454,0,0.0785,0.0769,0.0782,0.0768,0.0763,0.0808,0.0828,0.0877,0.0897,0.0943,0.0982,0.0953,0.0673,0.0405,0.0065,-0.0113,-0.0318,-0.0359,-0.0341,-0.0444,-0.0415,-0.045,-0.045,-0.0453,-0.0453,-0.0453,-0.0453,-0.0453,0.0818,0.0828,0.0819,0.0812,0.0824,0.0887,0.0946,0.101,0.1109,0.113,0.1119,0.1048,0.069,0.0229,-0.0021,-0.0285,-0.0304,-0.042,-0.0422,-0.0424,-0.0407,-0.0377,-0.0403,-0.0403,-0.0403,-0.0403,-0.0403,0,0.0842,0.0848,0.0857,0.0864,0.0924,0.0896,0.1005,0.1097,0.1234,0.1183,0.121,0.089,0.0595,0.0252,-0.016,-0.0392,-0.0429,-0.0429,-0.0455,-0.0456,-0.0457,-0.0443,-0.0448,-0.0448,-0.0449,-0.0449,0,0,0.0846,0.0871,0.0886,0.0956,0.0967,0.1042,0.1117,0.1238,0.1259,0.1258,0.1146,0.0937,0.0564,0.0234,-0.0075,-0.0247,-0.0286,-0.027,-0.0217,-0.0214,-0.0211,-0.0444,-0.0421,0,0,0,0,0]}],[{"header":{"parameterUnit":"m.s-1","parameterCategory":2,"la1":30.2991,"la2":30.254,"lo1":-89.0895,"lo2":-89.0444,"dy":0.0017,"dx":0.0017,"nx":28,"ny":28,"refTime":"2024-08-06T21:00:00:Z","depth":"4","parameterNumber":2,"parameterNumberName":"U-component_of_CURRENTS"},"data":[0,0,0,0,0,0,0,0,0,0,0,0,0,0,0,0,0,0,0,0,0,0,0,0,0,0,0,0,0,0,0,0,0,0,0,0,0,0,0,0,0,0,0,0,0,0,0,0,0,0,0,0,0,0,0,0,0,0,0.0407,0.0408,0,0.0471,0.0472,0.0472,0.0544,0.0545,0.0546,0.0547,0.0572,0.0571,0.0571,0,0,0,0,0,0,0,0,0,0,0,0,0,0.0328,0.0329,0.0407,0.0408,0.0409,0.0471,0.0472,0.0473,0.0543,0.0545,0.0546,0.0548,0.0572,0.0571,0.0571,0,0,0,0,0,0,0,0,0,0,0,0,0,0.0372,0.0329,0.0406,0.0453,0.0459,0.0471,0.0472,0.0473,0.0543,0.0545,0.0547,0.0549,0.0572,0.0571,0.0571,0.0528,0,0,0.0568,0.0568,0,0,0,0,0,0,0,0,0.0369,0.0374,0.0445,0.045,0.0456,0.0504,0.0454,0.049,0.0543,0.0508,0.0547,0.055,0.0546,0.0547,0.0552,0.0529,0.053,0.0568,0.0568,0.0567,0.0567,0,0,0,0,0,0,0,0.0366,0.0372,0.043,0.0446,0.0453,0.0466,0.0474,0.0461,0.0512,0.0511,0.0517,0.0528,0.0548,0.0552,0.0553,0.053,0.0568,0.0568,0.0567,0.0567,0.0546,0.0546,0,0,0,0,0,0,0.0362,0.0369,0.0428,0.0432,0.0419,0.0466,0.0475,0.0484,0.0514,0.0521,0.0526,0.0531,0.0553,0.0554,0.0554,0.0582,0.0567,0.0567,0.0566,0.0546,0.0546,0.0546,0,0,0,0,0,0,0.036,0.0367,0.0425,0.0404,0.0413,0.0466,0.0475,0.0485,0.0538,0.0526,0.0533,0.0576,0.0554,0.0555,0.0573,0.0581,0.0566,0.0566,0.0546,0.0546,0.0546,0.0588,0,0,0,0,0,0,0.0357,0.0365,0.038,0.0404,0.0414,0.0456,0.0474,0.0485,0.054,0.0548,0.057,0.0572,0.0556,0.0574,0.0572,0.0579,0.0565,0.0546,0.0546,0.0546,0.0586,0.0589,0.0591,0,0,0,0,0,0.0354,0.0364,0.038,0.0388,0.0429,0.0457,0.0464,0.0506,0.0541,0.0562,0.0578,0.0574,0.0571,0.0574,0.0571,0.0578,0.0546,0.0546,0.0546,0.0585,0.0589,0.0591,0,0,0,0,0,0,0.0342,0.0373,0.0391,0.0412,0.0444,0.0471,0.0496,0.053,0.0561,0.058,0.0576,0.0578,0.0591,0.0578,0.0581,0.057,0.0556,0.0555,0.0587,0.0589,0.0592,0.0614,0.0564,0,0,0,0,0,0.0343,0.0365,0.0392,0.0418,0.0431,0.0473,0.0497,0.053,0.0555,0.0575,0.0592,0.0595,0.0577,0.0584,0.0569,0.057,0.0564,0.057,0.0572,0.0575,0.059,0.0577,0.058,0.0545,0.0545,0.0545,0,0,0.0347,0.037,0.0383,0.0418,0.0446,0.0475,0.0493,0.0541,0.0577,0.0567,0.0624,0.0608,0.0579,0.0575,0.058,0.0576,0.0581,0.0574,0.0577,0.0591,0.0577,0.058,0.0584,0.0545,0.0545,0.0545,0,0,0.0359,0.0385,0.0402,0.0429,0.0478,0.0503,0.0529,0.0576,0.0608,0.0644,0.0636,0.0634,0.0634,0.0608,0.0591,0.0599,0.0592,0.0594,0.0631,0.0618,0.0621,0.0624,0.0626,0.0628,0.0599,0.06,0.06,0,0.0363,0.0392,0.0414,0.044,0.0473,0.0523,0.0557,0.0586,0.0641,0.0655,0.0672,0.066,0.0643,0.0618,0.0623,0.0605,0.0607,0.0624,0.0623,0.0625,0.0628,0.0629,0.0631,0.0602,0.0601,0.0601,0.0601,0,0.0381,0.0416,0.0433,0.0483,0.0517,0.0559,0.0599,0.0641,0.0689,0.0708,0.072,0.0696,0.0692,0.0673,0.0654,0.0651,0.0651,0.0626,0.062,0.0634,0.0634,0.0635,0.0604,0.0604,0.0603,0.0603,0,0,0.0351,0.043,0.0436,0.0475,0.0549,0.0578,0.0631,0.0675,0.071,0.0744,0.0773,0.0741,0.0746,0.0727,0.0699,0.0688,0.0701,0.0678,0.0676,0.0689,0.0694,0.0689,0.069,0.0682,0.0683,0.0683,0.069,0,0.0363,0.0419,0.0459,0.053,0.0566,0.0624,0.0666,0.0712,0.075,0.0785,0.0764,0.0779,0.076,0.0764,0.0751,0.0709,0.0707,0.0703,0.0671,0.067,0.0671,0.0692,0.0684,0.0691,0.0691,0.0692,0.0692,0,0.0357,0.0403,0.0471,0.056,0.0579,0.0633,0.071,0.0753,0.0793,0.0818,0.0833,0.0834,0.083,0.0811,0.0778,0.0782,0.0756,0.0722,0.072,0.0706,0.0668,0.0671,0.0695,0.0694,0.0694,0.0694,0.0694,0,0.0317,0.0407,0.047,0.0502,0.0604,0.0649,0.0707,0.0763,0.0801,0.085,0.088,0.0877,0.089,0.0855,0.0806,0.0806,0.0759,0.0741,0.071,0.0709,0.0693,0.069,0.0722,0.0722,0.0722,0.0722,0.0722,0,0.0305,0.0351,0.0464,0.0496,0.0572,0.0646,0.0718,0.0765,0.0831,0.085,0.0905,0.0891,0.0907,0.088,0.0827,0.0779,0.0779,0.0732,0.0713,0.071,0.0709,0.0695,0.0692,0.0723,0.0723,0.0723,0.0723,0,0.0249,0.0325,0.0396,0.0514,0.0558,0.0611,0.0737,0.077,0.085,0.0879,0.0905,0.0933,0.091,0.0904,0.0842,0.0814,0.075,0.0725,0.074,0.0718,0.0713,0.0711,0.0725,0.0725,0.0725,0.0725,0.0725,0,0.0231,0.0262,0.0393,0.0442,0.0506,0.0603,0.0658,0.0765,0.0784,0.0851,0.0832,0.0878,0.0879,0.0808,0.0788,0.0753,0.0728,0.0727,0.0723,0.0734,0.0714,0.0713,0.0712,0.0725,0.0725,0.0725,0.0725,0,0.0183,0.0232,0.0289,0.0393,0.0472,0.0549,0.0626,0.0639,0.0724,0.0806,0.0781,0.0799,0.0787,0.0766,0.078,0.0715,0.075,0.0727,0.0727,0.0722,0.0734,0.0714,0.0713,0.0725,0.0725,0.0725,0.0725,0,0.0138,0.0159,0.024,0.0335,0.0432,0.0477,0.0524,0.0564,0.0616,0.0699,0.0652,0.069,0.0735,0.0738,0.0687,0.0709,0.0709,0.0701,0.0702,0.0702,0.0695,0.0706,0.0684,0,0,0,0,0,0.0093,0.0115,0.0181,0.0271,0.0368,0.0428,0.0496,0.053,0.0594,0.0577,0.064,0.0619,0.0648,0.0633,0.0654,0.0665,0.0694,0.0687,0.068,0.0724,0.0724,0.0719,0,0,0,0,0,0,0.0066,0.0104,0.0148,0.0224,0.0274,0.0356,0.04,0.0432,0.0426,0.0498,0.0501,0.0602,0.0609,0.0634,0.0642,0.0652,0.0645,0.0729,0.0728,0.0724,0.0724,0.0724,0.0719,0,0,0,0,0]},{"header":{"parameterUnit":"m.s-1","parameterCategory":2,"la1":30.2991,"la2":30.254,"lo1":-89.0895,"lo2":-89.0444,"dy":0.0017,"dx":0.0017,"nx":28,"ny":28,"refTime":"2024-08-06T21:00:00:Z","depth":"4","parameterNumber":3,"parameterNumberName":"V-component_of_CURRENTS"},"data":[0,0,0,0,0,0,0,0,0,0,0,0,0,0,0,0,0,0,0,0,0,0,0,0,0,0,0,0,0,0,0,0,0,0,0,0,0,0,0,0,0,0,0,0,0,0,0,0,0,0,0,0,0,0,0,0,0,0,0.0028,0.0027,0,-0.0028,-0.0029,-0.003,-0.0099,-0.0099,-0.01,-0.0101,-0.0222,-0.0224,-0.0227,0,0,0,0,0,0,0,0,0,0,0,0,0,0.005,0.005,0.0028,0.0027,0.0027,-0.0028,-0.0029,-0.003,-0.0099,-0.0099,-0.01,-0.0101,-0.0221,-0.0224,-0.0227,0,0,0,0,0,0,0,0,0,0,0,0,0,0.0018,0.005,0.0028,-0.0011,-0.0014,-0.0028,-0.0029,-0.0031,-0.0098,-0.0099,-0.01,-0.0101,-0.022,-0.0224,-0.0227,-0.023,0,0,-0.0239,-0.0241,0,0,0,0,0,0,0,0,0.002,0.0017,-0.0005,-0.0008,-0.0012,-0.0054,-0.0065,-0.0099,-0.0098,-0.0071,-0.0101,-0.0102,-0.0168,-0.0176,-0.019,-0.0236,-0.0241,-0.024,-0.0242,-0.0244,-0.0245,0,0,0,0,0,0,0,0.0023,0.0019,0.0001,-0.0005,-0.0009,-0.0033,-0.0039,-0.0072,-0.0117,-0.0073,-0.0077,-0.0077,-0.0171,-0.0186,-0.0193,-0.0243,-0.0239,-0.0243,-0.0245,-0.0247,-0.0382,-0.0383,0,0,0,0,0,0,0.004,0.0021,0.0003,-0.0,0.0007,-0.0032,-0.0039,-0.0043,-0.0116,-0.0126,-0.0076,-0.0079,-0.0178,-0.0188,-0.0198,-0.0271,-0.0244,-0.0247,-0.0249,-0.0381,-0.0382,-0.0384,0,0,0,0,0,0,0.0041,0.0039,0.0005,0.0013,0.0007,-0.0031,-0.0035,-0.0043,-0.0081,-0.0116,-0.0129,-0.0107,-0.018,-0.0192,-0.0256,-0.0274,-0.0249,-0.0252,-0.0379,-0.0381,-0.0383,-0.0376,0,0,0,0,0,0,0.0042,0.004,0.0035,0.0014,0.0008,-0.0011,-0.0034,-0.0043,-0.0075,-0.0082,-0.0147,-0.0158,-0.0181,-0.025,-0.026,-0.0279,-0.0255,-0.0378,-0.038,-0.0382,-0.0375,-0.0378,-0.038,0,0,0,0,0,0.0043,0.0041,0.0035,0.0033,0.0005,-0.0011,-0.0018,-0.0051,-0.0076,-0.0091,-0.0146,-0.0157,-0.0272,-0.0255,-0.0266,-0.0286,-0.0376,-0.0379,-0.0382,-0.0374,-0.0377,-0.038,0,0,0,0,0,0,0.0042,0.0034,0.0026,0.002,0.0004,-0.0022,-0.0036,-0.0061,-0.0115,-0.0132,-0.0175,-0.019,-0.0254,-0.0272,-0.0252,-0.0333,-0.0325,-0.033,-0.0315,-0.0319,-0.0321,-0.0316,-0.0259,0,0,0,0,0,0.0045,0.0038,0.003,0.0019,0.0016,-0.0014,-0.0029,-0.0052,-0.0094,-0.012,-0.0168,-0.0221,-0.0269,-0.0297,-0.034,-0.0382,-0.0392,-0.0403,-0.0405,-0.0407,-0.0413,-0.045,-0.0456,-0.0393,-0.0393,-0.0393,0,0,0.004,0.0036,0.0029,0.0019,0.0003,-0.0015,-0.0028,-0.0053,-0.0088,-0.0123,-0.0198,-0.0237,-0.0285,-0.0338,-0.0366,-0.0358,-0.0428,-0.0411,-0.0412,-0.0417,-0.0454,-0.046,-0.0465,-0.0395,-0.0395,-0.0394,0,0,0.0029,0.0026,0.0018,0.0008,-0.0009,-0.0026,-0.0036,-0.0073,-0.0108,-0.0166,-0.0209,-0.0263,-0.0331,-0.0371,-0.0398,-0.0442,-0.0445,-0.0453,-0.0458,-0.0494,-0.0499,-0.0504,-0.0504,-0.0509,-0.0448,-0.0448,-0.0448,0,0.0023,0.0014,0.0011,0.0002,-0.0012,-0.0034,-0.0054,-0.0087,-0.015,-0.0182,-0.0192,-0.031,-0.0348,-0.0417,-0.043,-0.0448,-0.0454,-0.0438,-0.0496,-0.0501,-0.0506,-0.0505,-0.0511,-0.0448,-0.0448,-0.0448,-0.0448,0,0.0008,-0.0002,-0.0007,-0.0028,-0.0045,-0.0064,-0.0095,-0.0134,-0.0174,-0.0209,-0.0289,-0.0341,-0.0403,-0.0424,-0.044,-0.0498,-0.0485,-0.0496,-0.0481,-0.0511,-0.0509,-0.0515,-0.0448,-0.0448,-0.0448,-0.0448,0,0,0.0004,-0.0014,-0.0016,-0.0028,-0.0063,-0.0075,-0.0129,-0.0176,-0.0213,-0.0274,-0.0329,-0.0407,-0.0425,-0.0457,-0.0486,-0.0518,-0.0548,-0.0515,-0.0517,-0.0504,-0.0601,-0.0548,-0.0549,-0.0566,-0.0567,-0.0569,-0.0578,0,-0.0008,-0.0022,-0.0039,-0.0071,-0.0081,-0.0116,-0.0159,-0.0208,-0.0253,-0.0309,-0.0367,-0.0419,-0.044,-0.0456,-0.05,-0.0547,-0.0567,-0.0543,-0.0586,-0.0586,-0.0527,-0.0556,-0.0573,-0.0582,-0.0583,-0.0584,-0.0585,0,-0.0015,-0.0023,-0.0046,-0.0081,-0.009,-0.0114,-0.0174,-0.0214,-0.0289,-0.0321,-0.0381,-0.0421,-0.0488,-0.0488,-0.0578,-0.0559,-0.0577,-0.0604,-0.0605,-0.0564,-0.0545,-0.0554,-0.0595,-0.0594,-0.0593,-0.0593,-0.0592,0,-0.0001,-0.003,-0.0047,-0.0059,-0.0101,-0.0123,-0.015,-0.0216,-0.0239,-0.0313,-0.0326,-0.0427,-0.0451,-0.0521,-0.0565,-0.0574,-0.0644,-0.0663,-0.0629,-0.0624,-0.0669,-0.0665,-0.0712,-0.0712,-0.0712,-0.0712,-0.0712,0,-0.0002,-0.0016,-0.0034,-0.004,-0.0058,-0.0098,-0.0125,-0.0166,-0.0215,-0.0235,-0.0314,-0.034,-0.0459,-0.051,-0.0566,-0.0606,-0.0641,-0.0634,-0.0633,-0.0664,-0.0659,-0.0672,-0.0667,-0.0713,-0.0712,-0.0712,-0.0712,0,0.0012,-0.0001,-0.0015,-0.0044,-0.0046,-0.0056,-0.0074,-0.0096,-0.0137,-0.0162,-0.0173,-0.0271,-0.034,-0.0434,-0.0536,-0.0577,-0.0636,-0.0629,-0.0627,-0.0624,-0.0592,-0.0587,-0.062,-0.0618,-0.0617,-0.0616,-0.0615,0,0.0012,0.0011,0.0004,0.0015,0.0008,0.0001,-0.0006,-0.0048,-0.0062,-0.0112,-0.0123,-0.0188,-0.0254,-0.0356,-0.0468,-0.0566,-0.0572,-0.0595,-0.0633,-0.0592,-0.0588,-0.0585,-0.0582,-0.0613,-0.0612,-0.0612,-0.0612,0,0.0013,0.0016,0.0013,0.0053,0.006,0.0056,0.0051,0.005,0.0,-0.002,-0.006,-0.013,-0.0204,-0.0328,-0.0385,-0.0464,-0.0595,-0.0582,-0.0586,-0.0622,-0.0584,-0.058,-0.0579,-0.0607,-0.0608,-0.0608,-0.0608,0,0.001,0.0018,0.0038,0.0071,0.0102,0.0104,0.0087,0.0073,0.0056,0.0006,-0.0001,-0.0096,-0.0161,-0.027,-0.0336,-0.0401,-0.0433,-0.0464,-0.0475,-0.0481,-0.0445,-0.0378,-0.0339,0,0,0,0,0,0.0004,0.0022,0.0056,0.0074,0.0118,0.0138,0.0123,0.0095,0.0064,0.0056,0.0031,-0.0032,-0.0144,-0.0214,-0.0267,-0.0331,-0.0457,-0.0398,-0.05,-0.0581,-0.0587,-0.0564,0,0,0,0,0,0,-0.0003,0.0024,0.005,0.0097,0.0128,0.0145,0.0146,0.0109,0.0096,0.0069,0.0007,-0.0021,-0.0139,-0.009,-0.0254,-0.028,-0.0349,-0.0454,-0.0455,-0.0578,-0.0583,-0.0587,-0.0566,0,0,0,0,0]}]]